Hourly Data Report for June 30, 2021

DRYDEN REGIONAL
ONTARIO
Current Station Operator: NAVCAN

49°49'39.000" N
92°44'39.000" W
412.70 m
6032125
71527
YHD

Download Data

Hourly Data (June 2021)
Hourly Data Report for June 30, 2021
TIME
LST
Temp Definition
°C
Dew Point Definition
°C
Rel Hum Definition
%
Precip. Amount Definition
mm

Wind Dir Definition
10's deg

Wind Spd Definition
km/h
Visibility Definition
km
Stn Press Definition
kPa
Hmdx Definition


Wind Chill Definition


Weather Definition


00:00 17.1 11.3 69 0.0 27 5 14.5 96.94     LegendNANA
01:00 16.6 12.0 74 0.0 25 4 14.5 96.93     LegendNANA
02:00 14.9 12.0 83 0.0 6 5 16.1 96.95     LegendNANA
03:00 14.5 12.5 88 0.0 6 5 14.5 96.94     LegendNANA
04:00 15.3 12.0 80 0.0 24 5 16.1 96.94     LegendNANA
05:00 14.4 11.3 82 0.0 25 8 16.1 96.97     LegendNANA
06:00 15.0 11.3 78 0.0 30 5 16.1 97.01     LegendNANA
07:00 18.3 12.9 70 0.0 6 4 16.1 97.03     LegendNANA
08:00 22.1 13.5 58 0.0 30 8 16.1 97.03 25   LegendNANA
09:00 24.1 12.4 48 0.0 32 5 16.1 97.01 27   LegendNANA
10:00 25.2 12.8 45 0.0 LegendMM 5 16.1 96.99 28   LegendNANA
11:00 24.7 13.8 50 0.0 6 5 16.1 97.01 28   LegendNANA
12:00 26.5 13.0 43 0.0 6 13 16.1 97.00 29   LegendNANA
13:00 26.3 12.7 42 0.0 3 9 16.1 97.00 29   LegendNANA
14:00 27.0 13.3 42 0.0 4 15 16.1 97.00 30   LegendNANA
15:00 26.9 11.1 37 0.0 7 15 16.1 97.04 29   LegendNANA
16:00 26.6 11.4 38 0.0 6 15 11.3 97.02 29   LegendNANA
17:00 25.0 12.6 46 0.0 4 8 16.1 97.05 28   LegendNANA
18:00 25.5 11.9 42 0.0 6 13 16.1 97.02 28   LegendNANA
19:00 24.3 11.7 45 0.0 6 17 16.1 97.09 26   LegendNANA
20:00 22.6 12.4 52 0.0 6 15 9.7 97.09 25   Haze
21:00 20.7 12.9 60 0.0 6 13 16.1 97.15     LegendNANA
22:00 19.5 12.4 63 0.0 7 9 4.8 97.17     Haze
23:00 18.0 11.2 64 0.0 7 9 9.7 97.21     Haze

Notes on Data Quality.

Legend

  • E = Estimated
  • M = Missing
  • NA = Not Available*
  • [empty] = Indicates an unobserved value
Date modified: